Location: Unspecified
(0.0000°N, 0.0000°E)
Time: 02:21:08
(UTC+00:00)

PCSat - Visible Passes

Search period start: 29 November 2023 00:00
Search period end: 09 December 2023 00:00
Orbit: 784 x 792 km, 67.0° (Epoch: 28 November)

Date Brightness Start Highest point End Pass type
(mag) Time Alt. Az. Time Alt. Az. Time Alt. Az.
29 Nov 11.2 03:27:18 10° S 03:32:02 31° ESE 03:36:45 10° NE visible
29 Nov 10.9 05:11:42 10° WSW 05:15:07 17° WNW 05:18:31 10° NNW visible
30 Nov 11.9 02:56:43 10° SSE 03:00:35 20° ESE 03:04:26 10° ENE visible
30 Nov 10.4 04:39:11 10° SW 04:43:39 27° WNW 04:48:08 10° NNW visible
01 Dec 11.8 04:07:09 10° SW 04:18:06 - N 04:07:11 10° SW visible
